Simultaneous Nadir Overpasses (SNOs) Predictions

Prediction of SNOs over PacNW region [( 10.00, 139.50) to ( 22.70, 165.60)] between AQUA and NPP Satellites:

Table of predicted SNOs over PacNW region for the next 30.0 days since TLE Epoch: 5/21/2022
Index Date (AQUA) Time (AQUA) AQUA Lat,Lon Date (NPP) Time (NPP) NPP Lat,Lon Distance(km) Time Diff (sec)
1 05/25/2022 03:20:07 10.95, 152.92 05/25/2022 03:23:21 10.06, 148.92 448.55 194
2 05/27/2022 15:22:11 13.39, 155.98 05/27/2022 15:19:37 13.88, 153.57 266.01 154
3 06/02/2022 02:29:23 11.31, 165.59 06/02/2022 02:32:31 10.32, 161.59 450.30 188
4 06/04/2022 16:07:41 22.43, 146.09 06/04/2022 16:07:37 22.98, 143.12 310.00 4
5 06/12/2022 15:16:36 22.68, 158.93 06/12/2022 15:16:36 23.27, 155.93 314.43 0
